Weather History for Bentonville, AR

Change the Weather History Date:

Monday, February 18, 2013

  Actual Average Record
Temperature  
Mean Temperature 46 °F -  
Max Temperature 57 °F 49 °F 75 °F (1948)
Min Temperature 35 °F 27 °F -2 °F (1993)
Degree Days  
Heating Degree Days 19    
Moisture  
Dew Point 37 °F    
Average Humidity 61    
Maximum Humidity 82    
Minimum Humidity 38    
Precipitation  
Precipitation 0.12 in - - ()
Sea Level Pressure  
Sea Level Pressure 29.80 in    
Wind  
Wind Speed 17 mph (WSW)    
Max Wind Speed 25 mph    
Max Gust Speed 36 mph    
Visibility 10 miles    
Events Thunderstorm    
Averages and records for this station are not official NWS values.
T = Trace of Precipitation, MM = Missing Value Source: NWS Daily Summary

Daily Weather History Graph

Daily Weather History Graph

Search for Another Location

Airport:

Trip Planner

Search our weather history database for the weather conditions in past years. The results will help you decide how hot, cold, wet, or windy it might be!

Date:

Astronomy

Feb. 18, 2013 Rise Set
Actual Time 7:00 AM CST 6:01 PM CST
Civil Twilight 6:34 AM CST 6:27 PM CST
Nautical Twilight 6:04 AM CST 6:57 PM CST
Astronomical Twilight 5:34 AM CST 7:27 PM CST
Moon 11:52 AM CST (2/18) 1:36 AM CST (2/18)
Length of Visible Light 11h 52m
Length of Day
11h 00m
First Quarter, 58% of the Moon is Illuminated
Feb 18
First Quarter
Feb 25
Full
Mar 4
Last Quarter
Mar 11
New
Mar 19
First Quarter

Hourly Weather History & Observations

Time (CST) Temp. Windchill Dew Point Humidity Pressure Visibility Wind Dir Wind Speed Gust Speed Precip Events Conditions
12:55 AM 53.6 °F - 28.4 °F 38% 29.81 in 10.0 mi South 15.0 mph 19.6 mph N/A   Clear
1:15 AM 53.6 °F - 28.4 °F 38% 29.81 in 10.0 mi South 11.5 mph 20.7 mph N/A   Clear
1:55 AM 53.6 °F - 28.4 °F 38% 29.80 in 10.0 mi South 17.3 mph 24.2 mph N/A   Clear
2:15 AM 53.6 °F - 30.2 °F 41% 29.80 in 10.0 mi South 19.6 mph 25.3 mph N/A   Clear
2:35 AM 53.6 °F - 32.0 °F 44% 29.79 in 10.0 mi South 18.4 mph 26.5 mph N/A   Clear
2:55 AM 53.6 °F - 33.8 °F 47% 29.79 in 10.0 mi South 18.4 mph 29.9 mph N/A   Clear
3:15 AM 53.6 °F - 35.6 °F 51% 29.78 in 10.0 mi SSW 21.9 mph 34.5 mph N/A   Clear
3:55 AM 53.6 °F - 37.4 °F 54% 29.76 in 10.0 mi South 19.6 mph 31.1 mph N/A   Clear
4:15 AM 51.8 °F - 37.4 °F 58% 29.75 in 10.0 mi SSW 21.9 mph 31.1 mph N/A   Clear
4:35 AM 51.8 °F - 39.2 °F 62% 29.75 in 10.0 mi South 19.6 mph 27.6 mph N/A   Clear
4:55 AM 51.8 °F - 39.2 °F 62% 29.75 in 10.0 mi SSW 17.3 mph 25.3 mph N/A   Clear
5:15 AM 53.6 °F - 39.2 °F 58% 29.74 in 10.0 mi South 18.4 mph 26.5 mph N/A   Mostly Cloudy
5:35 AM 53.6 °F - 39.2 °F 58% 29.73 in 10.0 mi South 19.6 mph 28.8 mph N/A   Overcast
6:15 AM 53.6 °F - 42.8 °F 67% 29.72 in 10.0 mi South 20.7 mph 32.2 mph N/A   Overcast
6:35 AM 53.6 °F - 42.8 °F 67% 29.72 in 10.0 mi South 19.6 mph 35.7 mph N/A   Overcast
6:55 AM 53.6 °F - 42.8 °F 67% 29.70 in 10.0 mi South 16.1 mph 25.3 mph N/A   Overcast
7:15 AM 53.6 °F - 42.8 °F 67% 29.71 in 10.0 mi South 17.3 mph 31.1 mph N/A   Overcast
7:35 AM 53.6 °F - 42.8 °F 67% 29.71 in 10.0 mi South 20.7 mph 28.8 mph N/A   Overcast
7:55 AM 53.6 °F - 42.8 °F 67% 29.72 in 10.0 mi South 20.7 mph 28.8 mph N/A   Overcast
8:15 AM 53.6 °F - 42.8 °F 67% 29.72 in 10.0 mi South 19.6 mph 29.9 mph N/A   Overcast
8:35 AM 53.6 °F - 42.8 °F 67% 29.72 in 10.0 mi South 19.6 mph 28.8 mph N/A   Overcast
8:55 AM 53.6 °F - 44.6 °F 72% 29.72 in 10.0 mi South 17.3 mph 27.6 mph N/A   Overcast
9:15 AM 53.6 °F - 44.6 °F 72% 29.71 in 10.0 mi South 16.1 mph 28.8 mph N/A   Overcast
9:35 AM 55.4 °F - 44.6 °F 67% 29.70 in 10.0 mi South 17.3 mph 26.5 mph N/A   Overcast
9:55 AM 55.4 °F - 44.6 °F 67% 29.70 in 10.0 mi South 20.7 mph 29.9 mph N/A   Overcast
10:15 AM 55.4 °F - 46.4 °F 72% 29.69 in 10.0 mi South 20.7 mph 29.9 mph N/A   Overcast
10:35 AM 55.4 °F - 46.4 °F 72% 29.68 in 10.0 mi South 19.6 mph 28.8 mph N/A   Overcast
10:55 AM 55.4 °F - 46.4 °F 72% 29.68 in 10.0 mi South 17.3 mph 24.2 mph N/A   Overcast
11:15 AM 55.4 °F - 46.4 °F 72% 29.67 in 10.0 mi South 16.1 mph 24.2 mph N/A   Overcast
11:35 AM 55.4 °F - 46.4 °F 72% 29.67 in 10.0 mi South 19.6 mph 27.6 mph N/A   Mostly Cloudy
12:15 PM 55.4 °F - 48.2 °F 77% 29.65 in 10.0 mi South 17.3 mph 25.3 mph N/A   Overcast
12:35 PM 55.4 °F - 48.2 °F 77% 29.62 in 10.0 mi South 17.3 mph 27.6 mph N/A   Overcast
12:55 PM 57.2 °F - 48.2 °F 72% 29.62 in 10.0 mi SSW 16.1 mph 27.6 mph N/A Thunderstorm Overcast
1:15 PM 57.2 °F - 50.0 °F 77% 29.60 in 10.0 mi SSW 17.3 mph 27.6 mph N/A Thunderstorm Overcast
1:55 PM 57.2 °F - 48.2 °F 72% 29.60 in 10.0 mi WSW 18.4 mph 21.9 mph N/A   Overcast
2:15 PM 53.6 °F - 48.2 °F 82% 29.63 in 9.0 mi West 20.7 mph 28.8 mph 0.12 in Thunderstorm Mostly Cloudy
2:35 PM 55.4 °F - 46.4 °F 72% 29.64 in 10.0 mi West 19.6 mph 27.6 mph 0.12 in   Mostly Cloudy
2:55 PM 55.4 °F - 41.0 °F 58% 29.65 in 10.0 mi WNW 20.7 mph 29.9 mph 0.12 in   Mostly Cloudy
3:15 PM 55.4 °F - 37.4 °F 51% 29.67 in 10.0 mi WNW 18.4 mph 32.2 mph N/A   Scattered Clouds
3:35 PM 55.4 °F - 37.4 °F 51% 29.70 in 10.0 mi NW 25.3 mph 31.1 mph N/A   Scattered Clouds
3:55 PM 51.8 °F - 35.6 °F 54% 29.73 in 10.0 mi NW 21.9 mph 33.4 mph N/A   Mostly Cloudy
4:15 PM 51.8 °F - 35.6 °F 54% 29.74 in 10.0 mi WNW 17.3 mph 27.6 mph N/A   Scattered Clouds
4:35 PM 50.0 °F - 35.6 °F 58% 29.76 in 10.0 mi NW 19.6 mph 27.6 mph N/A   Partly Cloudy
4:55 PM 50.0 °F - 35.6 °F 58% 29.78 in 10.0 mi NW 16.1 mph 26.5 mph N/A   Scattered Clouds
5:15 PM 48.2 °F - 33.8 °F 58% 29.80 in 10.0 mi NW 20.7 mph 26.5 mph N/A   Overcast
5:35 PM 48.2 °F - 33.8 °F 58% 29.81 in 10.0 mi NNW 16.1 mph 24.2 mph N/A   Overcast
5:55 PM 48.2 °F - 32.0 °F 54% 29.83 in 10.0 mi NW 13.8 mph 19.6 mph N/A   Mostly Cloudy
6:15 PM 46.4 °F 41.1 °F 32.0 °F 57% 29.86 in 10.0 mi NW 11.5 mph - N/A   Mostly Cloudy
6:35 PM 46.4 °F 40.1 °F 32.0 °F 57% 29.87 in 10.0 mi NW 15.0 mph 27.6 mph N/A   Mostly Cloudy
6:55 PM 44.6 °F 38.4 °F 30.2 °F 57% 29.90 in 10.0 mi NW 12.7 mph 24.2 mph N/A   Partly Cloudy
7:15 PM 42.8 °F 36.6 °F 30.2 °F 61% 29.91 in 10.0 mi NNW 11.5 mph 21.9 mph N/A   Partly Cloudy
7:35 PM 42.8 °F 36.2 °F 28.4 °F 57% 29.94 in 10.0 mi NNW 12.7 mph 21.9 mph N/A   Partly Cloudy
7:55 PM 42.8 °F 37.0 °F 30.2 °F 61% 29.94 in 10.0 mi NW 10.4 mph 16.1 mph N/A   Scattered Clouds
8:15 PM 42.8 °F 38.0 °F 30.2 °F 61% 29.95 in 10.0 mi NW 8.1 mph - N/A   Mostly Cloudy
8:35 PM 41.0 °F 33.9 °F 28.4 °F 61% 29.97 in 10.0 mi NW 12.7 mph 18.4 mph N/A   Mostly Cloudy
8:55 PM 41.0 °F 31.6 °F 28.4 °F 61% 29.99 in 10.0 mi NW 20.7 mph 27.6 mph N/A   Overcast
9:15 PM 39.2 °F 30.5 °F 26.6 °F 61% 30.01 in 10.0 mi NW 16.1 mph 25.3 mph N/A   Scattered Clouds
9:35 PM 37.4 °F 28.5 °F 24.8 °F 60% 30.02 in 10.0 mi NNW 15.0 mph 20.7 mph N/A   Clear
9:55 PM 37.4 °F 28.9 °F 24.8 °F 60% 30.04 in 10.0 mi NNW 13.8 mph 17.3 mph N/A   Clear
10:15 PM 37.4 °F 30.3 °F 24.8 °F 60% 30.05 in 10.0 mi NNW 10.4 mph 18.4 mph N/A   Clear
10:35 PM 35.6 °F 28.0 °F 24.8 °F 65% 30.06 in 10.0 mi NNW 10.4 mph 19.6 mph N/A   Clear
10:55 PM 35.6 °F 27.5 °F 24.8 °F 65% 30.07 in 10.0 mi NNW 11.5 mph 16.1 mph N/A   Clear
11:15 PM 35.6 °F 28.6 °F 24.8 °F 65% 30.09 in 10.0 mi NNW 9.2 mph - N/A   Clear
11:35 PM 35.6 °F 29.2 °F 23.0 °F 60% 30.10 in 10.0 mi NNW 8.1 mph 16.1 mph N/A   Clear
11:55 PM 35.6 °F 29.2 °F 23.0 °F 60% 30.11 in 10.0 mi NNW 8.1 mph - N/A   Clear